GW6200 Weather Reports


Display with metric or nautical units.
time (UTC)temp
F
wind
direction
speed
MPH
gust
MPH
rain 1hr
in
rain 24hr
in
rain mn
in
humidity
%
barometer
mb
20260508122202 60 195 2.0 7.0 0.00 0.00 0.00 69 1015.8
20260508115201 58 213 3.0 9.0 0.00 0.00 0.00 68 1015.9
20260508114203 58 189 4.0 8.0 0.00 0.00 0.00 70 1015.8
20260508113202 60 220 3.0 8.0 0.00 0.00 0.00 69 1015.8
20260508112202 58 143 3.0 9.0 0.00 0.00 0.00 73 1015.7
20260508111202 57 232 3.0 8.0 0.00 0.00 0.00 79 1015.7
20260508110203 56 142 1.0 5.0 0.00 0.00 0.00 79 1015.7
20260508105203 56 164 3.0 6.0 0.00 0.00 0.00 79 1015.8
20260508104203 56 117 2.0 8.0 0.00 0.00 0.00 83 1015.8
20260508103201 54 135 2.0 5.0 0.00 0.00 0.00 86 1015.8
20260508102202 53 182 3.0 6.0 0.00 0.00 0.00 84 1015.8
20260508101203 52 144 3.0 6.0 0.00 0.00 0.00 84 1015.8
20260508100204 53 186 4.0 11.0 0.00 0.00 0.00 81 1015.7
20260508094202 55 152 3.0 7.0 0.00 0.00 0.00 81 1015.6
20260508093204 55 142 3.0 9.0 0.00 0.00 0.00 81 1015.4
20260508092204 55 153 4.0 9.0 0.00 0.00 0.00 81 1015.3
20260508091203 54 148 5.0 11.0 0.00 0.00 0.00 82 1015.3
20260508090204 55 144 4.0 9.0 0.00 0.00 0.00 80 1015.3
20260508085203 55 205 5.0 11.0 0.00 0.00 0.00 80 1015.2
20260508084205 55 170 4.0 9.0 0.00 0.00 0.00 81 1015.1
20260508082202 55 166 3.0 7.0 0.00 0.00 0.00 81 1014.9
20260508081204 55 169 2.0 7.0 0.00 0.00 0.00 81 1014.9
20260508080202 55 216 2.0 5.0 0.00 0.00 0.00 81 1014.8
20260508075202 54 179 2.0 5.0 0.00 0.00 0.00 84 1014.8
20260508074204 54 212 1.0 4.0 0.00 0.00 0.00 85 1014.7
20260508072202 53 179 0.0 2.0 0.00 0.00 0.00 86 1014.6
20260508071203 52 179 0.0 2.0 0.00 0.00 0.00 86 1014.4
20260508065202 52 179 0.0 1.0 0.00 0.00 0.00 87 1014.2
20260508063201 52 179 0.0 0.0 0.00 0.00 0.00 87 1014.1
20260508062205 52 179 0.0 0.0 0.00 0.00 0.00 88 1014.0
20260508061203 52 179 0.0 0.0 0.00 0.00 0.00 88 1013.9
20260508060202 51 179 0.0 1.0 0.00 0.00 0.00 88 1013.9
20260508055203 51 179 0.0 1.0 0.00 0.00 0.00 87 1013.8
20260508054204 51 179 1.0 2.0 0.00 0.00 0.00 87 1013.6
20260508053203 51 179 0.0 2.0 0.00 0.00 0.00 87 1013.5
20260508052203 51 179 0.0 2.0 0.00 0.00 0.00 87 1013.3
20260508051158 51 179 1.0 2.0 0.00 0.00 0.00 87 1013.2
20260508050155 51 179 1.0 3.0 0.00 0.00 0.00 86 1013.2
20260508044155 51 139 1.0 5.0 0.00 0.00 0.00 85 1013.1
20260508043152 51 160 2.0 6.0 0.00 0.00 0.00 85 1013.0
20260508042153 51 150 2.0 6.0 0.00 0.00 0.00 85 1012.9
20260508041151 51 187 3.0 7.0 0.00 0.00 0.00 84 1012.9
20260508040150 51 188 4.0 10.0 0.00 0.00 0.00 84 1012.9
20260508035148 51 196 3.0 9.0 0.00 0.00 0.00 83 1012.8
20260508034148 51 190 4.0 10.0 0.00 0.00 0.00 83 1012.8
20260508033210 51 163 2.0 6.0 0.00 0.00 0.00 82 1012.8
20260508031148 51 213 3.0 7.0 0.00 0.00 0.00 82 1012.9
20260508030202 51 170 2.0 6.0 0.00 0.00 0.00 82 1012.9
20260508023159 51 202 3.0 7.0 0.00 0.00 0.00 81 1012.8
20260508021147 51 197 3.0 6.0 0.00 0.00 0.00 81 1012.7
20260508020159 51 201 3.0 6.0 0.00 0.00 0.00 81 1012.7
20260508015146 51 185 3.0 9.0 0.00 0.00 0.00 81 1012.8
20260508013147 51 173 4.0 9.0 0.00 0.00 0.00 81 1012.8
20260508012145 51 177 4.0 9.0 0.00 0.00 0.00 81 1012.9
20260508011145 51 194 2.0 7.0 0.00 0.00 0.00 81 1012.8
20260508010146 51 113 2.0 7.0 0.00 0.00 0.00 80 1012.8
20260508004139 50 167 3.0 7.0 0.00 0.00 0.00 81 1012.9
20260508003139 49 140 2.0 4.0 0.00 0.00 0.00 82 1012.9
20260508002139 49 120 2.0 6.0 0.00 0.00 0.00 81 1013.0
20260508001139 50 100 1.0 3.0 0.00 0.00 0.00 79 1013.0
20260507235139 51 165 1.0 2.0 0.00 0.00 0.00 76 1012.9
20260507234139 51 165 2.0 6.0 0.00 0.00 0.00 77 1012.9
20260507233140 51 138 2.0 5.0 0.00 0.00 0.00 77 1012.8
20260507232139 51 216 3.0 9.0 0.00 0.00 0.00 78 1012.7
20260507231139 51 138 4.0 9.0 0.00 0.00 0.00 78 1012.7
20260507230140 51 159 3.0 8.0 0.00 0.00 0.00 78 1012.6
20260507225139 51 171 2.0 6.0 0.00 0.00 0.00 78 1012.7
20260507224134 51 135 3.0 6.0 0.00 0.00 0.00 77 1012.6
20260507223134 51 225 2.0 6.0 0.00 0.00 0.00 77 1012.7
20260507222136 51 176 3.0 7.0 0.00 0.00 0.00 76 1012.7
20260507220134 52 158 3.0 7.0 0.00 0.00 0.00 76 1012.7
20260507214134 52 150 3.0 6.0 0.00 0.00 0.00 74 1012.7
20260507205130 53 194 2.0 5.0 0.00 0.00 0.00 72 1012.8
20260507204130 53 165 2.0 6.0 0.00 0.00 0.00 72 1012.8
20260507203129 53 184 2.0 7.0 0.00 0.00 0.00 72 1012.7
20260507202131 53 165 2.0 6.0 0.00 0.00 0.00 71 1012.7
20260507201132 53 128 3.0 6.0 0.00 0.00 0.00 71 1012.6
20260507200130 54 212 2.0 10.0 0.00 0.00 0.00 70 1012.5
20260507195130 54 159 4.0 10.0 0.00 0.00 0.00 70 1012.4
20260507193129 54 171 4.0 11.0 0.00 0.00 0.00 69 1012.2
20260507192131 54 196 4.0 9.0 0.00 0.00 0.00 69 1012.2
20260507191130 54 154 4.0 9.0 0.00 0.00 0.00 70 1012.3
20260507184129 54 175 4.0 10.0 0.00 0.00 0.00 70 1012.3
20260507182130 55 177 4.0 10.0 0.00 0.00 0.00 70 1012.2
20260507181124 55 194 4.0 10.0 0.00 0.00 0.00 70 1012.1
20260507180123 55 167 4.0 9.0 0.00 0.00 0.00 70 1012.2
20260507173123 55 176 4.0 10.0 0.00 0.00 0.00 70 1012.3
20260507172123 55 200 5.0 12.0 0.00 0.00 0.00 70 1012.2
20260507171123 55 175 5.0 13.0 0.00 0.00 0.00 70 1012.1
20260507170123 55 148 5.0 15.0 0.00 0.00 0.00 69 1012.3
20260507165123 56 130 5.0 13.0 0.00 0.00 0.00 67 1012.3
20260507164123 56 223 6.0 14.0 0.00 0.00 0.00 66 1012.3
20260507163123 56 182 5.0 12.0 0.00 0.00 0.00 66 1012.2
20260507162125 57 182 5.0 12.0 0.00 0.00 0.00 67 1012.3
20260507161123 57 236 6.0 14.0 0.00 0.00 0.00 67 1012.3
20260507160123 57 179 7.0 14.0 0.00 0.00 0.00 66 1012.3
20260507155123 58 198 6.0 12.0 0.00 0.00 0.00 63 1012.3
20260507154123 58 156 6.0 15.0 0.00 0.00 0.00 63 1012.4
20260507153125 57 188 7.0 15.0 0.00 0.00 0.00 64 1012.4
20260507152123 57 178 7.0 14.0 0.00 0.00 0.00 63 1012.5
20260507150124 58 194 6.0 15.0 0.00 0.00 0.00 62 1012.5
20260507145123 57 156 7.0 16.0 0.00 0.00 0.00 62 1012.5
20260507144123 57 191 6.0 16.0 0.00 0.00 0.00 63 1012.5
20260507143123 57 132 7.0 16.0 0.00 0.00 0.00 64 1012.6
20260507142124 58 210 6.0 17.0 0.00 0.00 0.00 63 1012.7
20260507141118 58 168 5.0 12.0 0.00 0.00 0.00 65 1012.7
20260507140118 57 126 6.0 14.0 0.00 0.00 0.00 62 1012.7
20260507135119 57 226 5.0 16.0 0.00 0.00 0.00 62 1012.8
20260507133119 57 235 6.0 14.0 0.00 0.00 0.00 61 1012.8
20260507132119 58 193 5.0 12.0 0.00 0.00 0.00 57 1012.8
20260507131119 57 186 7.0 15.0 0.00 0.00 0.00 63 1012.9
20260507125119 57 184 6.0 12.0 0.00 0.00 0.00 63 1012.9
20260507124119 57 130 5.0 11.0 0.00 0.00 0.00 65 1013.0
20260507123117 56 212 5.0 13.0 0.00 0.00 0.00 67 1013.0